Regional Weather Roundup
Issued by NWS

Home | Current Version | Previous Version | Graphics & Text | Print | Product List | Glossary On
Versions: 1 2 3 4 5 6 7 8 9 10 11 12 13 14 15 16 17 18 19 20 21 22 23 24 25 26 27 28 29 30 31 32 33 34 35 36 37 38 39 40 41 42 43 44 45 46 47 48 49 50
000
ASUS45 KSLC 270210
RWRUT

UTAH REGIONAL WEATHER ROUNDUP
NATIONAL WEATHER SERVICE SALT LAKE CITY UT
700 PM MST THU FEB 26 2015

UTZ001>011-023>025-270300-

NORTHERN UTAH

CITY           SKY/WX    TMP DP  RH WIND       PRES   REMARKS
BRIGHAM CITY   CLOUDY    37  31  77 SW3       29.92S
HILL AFB       NOT AVBL
LOGAN          CLEAR     32  28  85 S5        29.91S WCI  27
OGDEN          MOCLDY    35  30  82 CALM      29.91R
PROVO AIRPORT  NOT AVBL
SALT LAKE CITY MOCLDY    36  30  79 W7        29.91R WCI  30
VERNAL         CLOUDY    34  18  52 N8        29.86R WCI  27
WENDOVER       CLOUDY    43  21  42 N8        29.94R
HEBER CITY     CLOUDY    32  27  80 CALM      29.86R
WEST JORDAN    CLEAR     34  32  93 CALM      29.92S

$$

UTZ012>022-026-027-270300-

SOUTHERN/CENTRAL UTAH

CITY           SKY/WX    TMP DP  RH WIND       PRES   REMARKS
BLANDING       CLOUDY    30  29  99 N6        29.94S WCI  24
BRYCE CANYON   PTCLDY    27  18  69 NW7       29.86S WCI  19
CEDAR CITY     CLOUDY    38  27  64 N8        29.87R WCI  32
DELTA          CLOUDY    38  25  59 N6        29.91S WCI  33
HANKSVILLE     PTCLDY    37  32  81 CALM      29.89R
MILFORD        CLOUDY    40  26  57 N13       29.90R WCI  32
MOAB/CYNLANDS  CLOUDY    38  27  64 SW6       29.85S WCI  33
PRICE          CLOUDY    32  27  81 NE5       29.84S WCI  27
ST GEORGE      MOCLDY    55  27  33 NE13      29.81R
KANAB            N/A     45  23  42 NW7       29.87R

$$

REGIONAL REPORTS     COLORADO/ARIZONA

CITY           SKY/WX    TMP DP  RH WIND       PRES   REMARKS
CRAIG, CO      LGT SNOW  26  23  88 CALM      29.87S FOG
GRAND JUNCTION CLOUDY    38  20  48 SW7       29.85R WCI  33
RIFLE          CLOUDY    35  22  58 VRB3      29.85R
MONTROSE       CLOUDY    31  21  66 S5        29.87S WCI  26
CORTEZ         SNOW      31  30  96 E3        29.87F VSB 1/2
PAGE, AZ       PTCLDY    45  33  63 NE5       29.82R
GRAND CANYON   CLEAR     37  22  54 CALM      29.86R
KINGMAN        CLEAR     52  21  29 N5        29.83R
FLAGSTAFF      PTCLDY    38  23  55 W9        29.86F WCI  31

$$

REGIONAL REPORTS    NEVADA/IDAHO/WYOMING

CITY           SKY/WX    TMP DP  RH WIND       PRES   REMARKS
LAS VEGAS, NV  PTCLDY    64  19  17 E6        29.73R
ELY            CLOUDY    35  16  45 NW14      29.91F WCI  26
ELKO           CLOUDY    38  27  64 SE5       29.95S WCI  34
POCATELLO, ID  MOCLDY    34  17  50 NW6       29.93R WCI  29
BURLEY         CLOUDY    37  28  70 W13       29.91S WCI  29
EVANSTON, WY   LGT SNOW  24  21  88 E5        29.87R FOG     WCI  18
ROCK SPRINGS   CLOUDY    11   6  81 NE23      29.94R WCI  -9

$$



USA.gov is the U.S. government's official web portal to all federal, state and local government web resources and services.